Kenai, AK

8:10 PM AKDT on June 25, 2017 (GMT -0800)
Kenai Municipal

Weather History for PAEN - February, 2014

Change the Weather History Date:

Monday, February 3, 2014

  Actual Average Record
Temperature  
Mean Temperature 26 °F -  
Max Temperature 28 °F 22 °F 41 °F (1997)
Min Temperature 23 °F 4 °F -32 °F (1999)
Degree Days  
Heating Degree Days 40    
Moisture  
Dew Point 20 °F    
Average Humidity 71    
Maximum Humidity 78    
Minimum Humidity 64    
Precipitation  
Precipitation 0.00 in - - ()
Sea Level Pressure  
Sea Level Pressure 30.46 in    
Wind  
Wind Speed 13 mph (NNE)    
Max Wind Speed 18 mph    
Max Gust Speed -    
Visibility 10 miles    
Events      
Averages and records for this station are not official NWS values.
T = Trace of Precipitation, MM = Missing Value Source: NWS Daily Summary

Daily Weather History Graph

Daily Weather History Graph

Search for Another Location

Airport or City:

Trip Planner

Search our weather history database for the weather conditions in past years. The results will help you decide how hot, cold, wet, or windy it might be!

Date:

Astronomy

Feb. 03, 2014 Rise Set
Actual Time 9:16 AM AKST 5:22 PM AKST
Civil Twilight 8:28 AM AKST 6:10 PM AKST
Nautical Twilight 7:37 AM AKST 7:01 PM AKST
Astronomical Twilight 6:48 AM AKST 7:50 PM AKST
Moon 10:00 AM AKST (2/3) 11:58 PM AKST (2/3)
Length of Visible Light 9h 41m
Length of Day
8h 06m
Waxing Crescent, 21% of the Moon is Illuminated
Feb 3
Waxing Crescent
Feb 6
First Quarter
Feb 14
Full
Feb 22
Last Quarter
Feb 28
New

Hourly Weather History & Observations

Time (AKST) Temp. Windchill Dew Point Humidity Pressure Visibility Wind Dir Wind Speed Gust Speed Precip Events Conditions
12:53 AM 23.0 °F 13.1 °F 17.1 °F 78% 30.41 in 10.0 mi NNE 9.2 mph - N/A   Clear
1:53 AM 25.0 °F 16.3 °F 19.0 °F 78% 30.42 in 10.0 mi ENE 8.1 mph - N/A   Overcast
3:53 AM 27.0 °F 16.7 °F 19.9 °F 75% 30.42 in 10.0 mi NNE 11.5 mph - N/A   Overcast
4:53 AM 28.0 °F 17.0 °F 19.0 °F 69% 30.42 in 10.0 mi NNE 13.8 mph - N/A   Overcast
5:53 AM 28.0 °F 18.6 °F 19.9 °F 72% 30.42 in 10.0 mi NNE 10.4 mph - N/A   Overcast
6:53 AM 28.0 °F 16.5 °F 21.0 °F 75% 30.43 in 10.0 mi NNE 15.0 mph - N/A   Overcast
7:53 AM 28.0 °F 17.5 °F 21.0 °F 75% 30.43 in 10.0 mi NNE 12.7 mph - N/A   Overcast
8:53 AM 28.0 °F 17.0 °F 19.9 °F 72% 30.44 in 10.0 mi NNE 13.8 mph - N/A   Overcast
9:53 AM 28.0 °F 17.0 °F 21.0 °F 75% 30.45 in 10.0 mi North 13.8 mph - N/A   Overcast
10:53 AM 28.9 °F 18.2 °F 19.9 °F 69% 30.45 in 10.0 mi NNE 13.8 mph - N/A   Overcast
11:53 AM 28.9 °F 17.3 °F 19.0 °F 67% 30.45 in 10.0 mi NNE 16.1 mph - N/A   Overcast
12:53 PM 28.9 °F 18.2 °F 19.0 °F 67% 30.45 in 10.0 mi NNE 13.8 mph - N/A   Overcast
1:53 PM 28.9 °F 17.3 °F 19.0 °F 67% 30.45 in 10.0 mi NNE 16.1 mph - N/A   Overcast
2:53 PM 28.9 °F 16.9 °F 19.9 °F 69% 30.46 in 10.0 mi NNE 17.3 mph - N/A   Overcast
3:53 PM 28.0 °F 15.3 °F 21.9 °F 78% 30.46 in 10.0 mi North 18.4 mph - N/A   Overcast
4:53 PM 28.9 °F 16.5 °F 19.9 °F 69% 30.47 in 10.0 mi North 18.4 mph - N/A   Overcast
5:53 PM 28.9 °F 17.7 °F 21.0 °F 72% 30.48 in 10.0 mi NNE 15.0 mph - N/A   Overcast
6:53 PM 28.0 °F 15.7 °F 21.0 °F 75% 30.49 in 10.0 mi NNE 17.3 mph - N/A   Overcast
7:53 PM 28.0 °F 16.5 °F 19.9 °F 72% 30.50 in 10.0 mi NNE 15.0 mph - N/A   Overcast
8:53 PM 28.0 °F 15.3 °F 18.0 °F 66% 30.51 in 10.0 mi NNE 18.4 mph - N/A   Overcast
9:53 PM 28.9 °F 17.7 °F 18.0 °F 64% 30.53 in 10.0 mi NNE 15.0 mph - N/A   Overcast
10:53 PM 28.0 °F 17.0 °F 18.0 °F 66% 30.54 in 10.0 mi NNE 13.8 mph - N/A   Mostly Cloudy
11:53 PM 28.0 °F 16.1 °F 18.0 °F 66% 30.55 in 10.0 mi NNE 16.1 mph - N/A   Overcast